Regional Weather Roundup
Issued by NWS Grand Forks, ND

Home | Current Version | Previous Version | Text Only | Print | Product List | Glossary Off
Versions: 1 2 3 4 5 6 7 8 9 10 11 12 13 14 15 16 17 18 19 20 21 22 23 24 25 26 27 28 29 30 31 32 33 34 35 36 37 38 39 40 41 42 43 44 45 46 47 48 49 50

000
ASUS43 KFGF 241310
RWRFGF
PRAIRIE TO PINES  WEATHER ROUNDUP
NATIONAL WEATHER SERVICE EASTERN NORTH DAKOTA/GRAND FORKS ND
700 AM CST WED DEC 24 2014

 **SATELLITE DATA USED TO AUGMENT SKY COVER AT AUTOMATED STATIONS**
 *****  WEATHER ACROSS EASTERN NORTH DAKOTA  *****

CITY           SKY/WX    TMP DP  RH WIND       PRES   REMARKS
GRAND FORKS    CLOUDY    27  25  92 W9        29.85F WCI  18
GRAND FRKS AFB CLOUDY    26  26  99 NW8       29.85F WCI  18
GRAND FRKS NWS   N/A     28 N/A N/A NW3         N/A
DEVILS LAKE    CLOUDY    25  21  86 S7        29.80F WCI  17
FARGO          CLOUDY    30  27  88 W6        29.86S WCI  24
WAHPETON ARPT  CLOUDY    30  27  86 NW9       29.86F WCI  22
$$

 ***** WEATHER ACROSS CENTRAL AND WESTERN NORTH DAKOTA  *****

CITY           SKY/WX    TMP DP  RH WIND       PRES   REMARKS
BISMARCK       CLOUDY    25  24  96 S6        29.83F WCI  18
MINOT          MOCLDY    26  23  88 S12       29.71F FOG     WCI  16
JAMESTOWN      CLOUDY    25  23  92 W7        29.84F WCI  17
MINOT AFB      MOCLDY    25  25 100 S9        29.71F WCI  16
GARRISON         N/A     24  23  96 S7        29.75F WCI  16
WILLISTON      CLOUDY    24  21  88 S5        29.66F WCI  18
DICKINSON      CLOUDY    24  18  77 S13       29.69F WCI  12
HETTINGER      PTCLDY    17  13  84 CALM      29.76F
$$

 *****  OTHER AIRPORT OBSERVATIONS IN OUR AREA  *****

CITY           SKY/WX    TMP DP  RH WIND       PRES   REMARKS
WALHALLA         N/A     25  25 100 SW5       29.83F WCI  19
GRAFTON AIRPOR NOT AVBL
VALLEY CITY AR CLOUDY    25  25 100 W9        29.85F WCI  15
CANDO          CLOUDY    23  23 100 S6        29.79F FOG     WCI  16
CAVALIER APRT  CLOUDY    25  23  93 SW8       29.83F WCI  16
GWINNER        CLOUDY    28  28 100 CALM      29.87F
ROLLA          FOG       23  23 100 S12       29.75F VSB 3/4 WCI  12
 ***** THE ABOVE OBSERVATIONS ARE NON NWS ARE NOT QUALITY
       CONTROLLED AND MAY MIS-REPORT RAIN FOR SNOW...
$$

  *****  WEATHER ACROSS NORTHERN MINNESOTA  *****

CITY           SKY/WX    TMP DP  RH WIND       PRES   REMARKS
FLAG ISLAND    CLOUDY    30  28  93 NW6       29.79F WCI  24
WARROAD        CLOUDY    30  27  86 CALM      29.81F
ROSEAU         CLOUDY    30  27  86 CALM      29.81F
HALLOCK        CLOUDY    28  27  93 CALM      29.83F
THF RVR FALLS  CLOUDY    28  28 100 NW7       29.82F WCI  21
BAUDETTE       CLOUDY    32  30  92 N3        29.79F
WASKISH        CLOUDY    32  32 100 CALM      29.80F
CROOKSTON      CLOUDY    28  28 100 NW7       29.85F WCI  21
STEPHEN NDAWN    N/A     28  27  93 NW3         N/A
GREENBUSH NDAW   N/A     28  28 100 W6          N/A  WCI  22
$$
  *****  WEATHER ACROSS CENTRAL AND WEST MINNESOTA  *****

CITY           SKY/WX    TMP DP  RH WIND       PRES   REMARKS
FOSSTON        CLOUDY    28  27  93 CALM      29.82S FOG
BEMIDJI        CLOUDY    31  30  99 NW5       29.80S
PARK RAPIDS    CLOUDY    31  29  92 N6        29.79F
ELBOW LAKE     CLOUDY    29  28  99 NW8       29.83F FOG     WCI  21
WADENA         CLOUDY    30  28  93 NW5       29.80F
DETROIT LAKES  FOG       30  30 100 NW6       29.82F VSB 1/4 WCI  24
MOORHEAD       CLOUDY    30  30 100 NW7       29.87S WCI  23
FERGUS FALLS   CLOUDY    28  28 100 NW12      29.87F WCI  18
MORRIS MN      CLOUDY    30  28  93 NW13      29.84F WCI  20
STAPLES        CLOUDY    30  30 100 NW8       29.81S WCI  23
$$
  *****  WEATHER ELSEWHERE ACROSS MINNESOTA  *****

CITY           SKY/WX    TMP DP  RH WIND       PRES   REMARKS
DULUTH         CLOUDY    32  29  88 N7        29.75F
INTRNTL FALLS  FOG       32  31  96 N3        29.78S VSB 1/2
ELY            LGT SNOW  30  30 100 CALM      29.77F
CLOQUET        CLOUDY    34  30  86 N3        29.77F
WHEATON        CLOUDY    27  27 100 NW9       29.88F WCI  17
BRAINERD       CLOUDY    32  30  92 N3        29.80S
HIBBING        CLOUDY    33  30  88 N6        29.77S
ALEXANDRIA     CLOUDY    30  29  96 N7        29.82F WCI  23
SAINT CLOUD    CLOUDY    35  30  82 N3        29.80F
MINNEAPOLIS    CLOUDY    34  31  88 N10       29.78F
$$

  *****  WEATHER ACROSS SOUTH DAKOTA  *****

CITY           SKY/WX    TMP DP  RH WIND       PRES   REMARKS
SIOUX FALLS    CLOUDY    29  27  92 NW12      29.87S WCI  19
BROOKINGS      NOT AVBL
WATERTOWN      CLOUDY    26  24  92 NW12      29.85F WCI  16
HURON          CLOUDY    24  22  91 NW9       29.91F WCI  14
SISSETON         N/A     28  26  92 NW13      29.86F WCI  17
ABERDEEN       CLOUDY    26  23  88 W7        29.89F WCI  18
MITCHELL       CLOUDY    25  23  92 NW10      29.92F WCI  15
PIERRE         PTCLDY    14  13  95 SW7       29.89F WCI   4
MOBRIDGE       PTCLDY    20  17  88 S7        29.82F WCI  11
RAPID CITY     CLEAR     14   9  80 E5        29.80F WCI   6
$$

  *****  SOME WEATHER IN NEARBY STATES *****

CITY           SKY/WX    TMP DP  RH WIND       PRES   REMARKS
GLASGOW MT     CLOUDY    32  26  78 CALM      29.62S
GREAT FALLS MT CLOUDY    44  29  55 SW20G25   29.61F
CHEYENNE WY    CLEAR     26  10  50 W13       29.86S WCI  15
SCOTTSBLUFF NE PTCLDY    10   5  80 CALM      29.90F
OMAHA NE       CLOUDY    33  30  88 NW17      29.89S WCI  22
DES MOINES IA  FLURRIES  35  32  88 N13       29.78S
DAVENPORT IA   CLOUDY    35  32  88 NW7       29.67S FOG
CHICAGO IL     CLOUDY    38  33  82 N7        29.61F
EAU CLAIRE WI  CLOUDY    34  29  82 N9        29.71F
LA CROSSE WI   MIX PCPN  34  32  92 N9        29.71S
$$

  *****  SOME NATIONAL WEATHER *****

CITY           SKY/WX    TMP DP  RH WIND       PRES   REMARKS
LA GUARDIA NY  CLOUDY    45  43  93 NE10      29.96F FOG
RALEIGH NC     LGT RAIN  48  46  93 N6        29.82F VSB 1/8
ATLANTA GA     RAIN      50  49  96 E9        29.72R FOG
NEW ORLEANS LA PTCLDY    48  43  82 NW14      29.83R
OKLAHOMA CITY  CLOUDY    36  28  73 NW16G26   29.98R
ALBUQUERQUE NM CLEAR     21  11  65 CALM      30.18R
SALT LAKE CITY MOCLDY    29  20  69 SE13      30.16F WCI  19
LOS ANGELES CA CLEAR     58  38  47 CALM      30.07F
BOISE ID       MOCLDY    30  26  85 N3        29.95F
SEATTLE WA     CLOUDY    39  37  92 CALM      29.95F
$$

*** WEATHER ACROSS MANITOBA...SASKATCHEWAN AND ONTARIO ***
                ***ONTARIO***

CITY           SKY/WX    TMP DP  RH WIND       PRES   REMARKS
GERALDTON      FLURRIES  27  25  93 E8        29.77  WCI  18
THUNDER BAY    FLURRIES  32  32 100 NE3       29.78F
SIOUX LOOKOUT  FLURRIES  28  28 100 VRB2      29.78F
TORONTO        LGT RAIN  45  43  93 NE3       29.65F VSB 1
BIG TROUT LK   CLOUDY    19  19 100 E3        29.86F
PICKLE LAKE    FLURRIES  23  21  93 NE6       29.79F WCI  16
DRYDEN         FOG       30  30 100 NE3       29.78S VSB 3/8
KENORA         NOT AVBL
$$
                *** MANITOBA***

CITY           SKY/WX    TMP DP  RH WIND       PRES   REMARKS
BRANDON        NOT AVBL
DAUPHIN        CLOUDY    18  16  93 SE5       29.69F WCI  11
ISLAND LAKE    FLURRIES  21  19  93 SE6       29.79F WCI  14
PILOT MOUND      N/A     21  19  93 S9          N/A  WCI  11
THE PAS        NOT AVBL
THOMPSON       LGT SNOW  18  16  93 VRB2      29.74F FOG
WINNIPEG       CLOUDY    27  23  86 W8        29.81F WCI  18
LYNN LAKE      CLOUDY    19  19 100 S6        29.62F WCI  11
CHURCHILL      FLURRIES  16  14  93 S13       29.83F WCI   2
GILLAM         FLURRIES  18  16  93 SE5       29.82F WCI  11
$$
                ***SASKATCHEWAN***

CITY           SKY/WX    TMP DP  RH WIND       PRES   REMARKS
ESTEVAN        FLURRIES  27  25  93 S12       29.61F WCI  16
KINDERSLEY     NOT AVBL
LLOYDMINSTER   CLEAR     19  18  93 W10       29.50F WCI   8
PRINCE ALBERT  FLURRIES  23  23 100 E6        29.50F WCI  16
REGINA         CLOUDY    27  25  93 S14       29.51F WCI  15
YORKTON        LGT SNOW  25  23  93 SE15G21   29.55F WCI  12
N. BATTLEFORD  PTCLDY    16  16 100 W8        29.53S WCI   5
LA RONGE       LGT SNOW  23  21  93 NE5       29.54F WCI  17
SASKATOON      NOT AVBL
SWIFT CURRENT  CLEAR     27  25  93 SW12      29.54S WCI  16
$$
NOTE: THESE ARE AUTOMATED STATIONS WITH LIMITED QUALITY CONTROL
      "FAIR" INDICATES FEW OR NO CLOUDS BELOW 12,000 FEET WITH NO
      SIGNIFICANT WEATHER AND/OR OBSTRUCTIONS TO VISIBILITY.
      SKY/WX - SKY CONDITION AND SIGNIFICANT WEATHER.
      TMP - AIR TEMPERATURE.    DP   - DEWPOINT TEMPERATURE.
      RH  - RELATIVE HUMIDITY.  PRES - PRESSURE.
      HX  - HEAT INDEX.         WCI  - WIND CHILL INDEX.
$



USA.gov is the U.S. government's official web portal to all federal, state and local government web resources and services.